N2IVN Weather Reports


Display with metric or nautical units.
time (UTC)temp
F
wind
direction
speed
MPH
gust
MPH
rain 1hr
in
rain 24hr
in
rain mn
in
humidity
%
barometer
mb
20260506073504 62 205 6.0 13.0 0.00 0.00 0.00 87 1010.9
20260506073005 62 198 6.0 10.0 0.00 0.00 0.00 86 1010.9
20260506072505 62 200 2.0 10.0 0.00 0.00 0.00 86 1011.0
20260506072004 62 213 3.0 12.0 0.00 0.00 0.00 86 1011.0
20260506071504 62 194 5.0 13.0 0.00 0.00 0.00 86 1011.0
20260506071004 62 202 7.0 12.0 0.00 0.00 0.00 86 1011.1
20260506070505 62 224 7.0 13.0 0.00 0.00 0.00 86 1011.1
20260506062004 63 203 6.0 16.0 0.00 0.00 0.00 85 1011.1
20260506061504 63 210 5.0 10.0 0.00 0.00 0.00 84 1011.0
20260506061004 63 214 9.0 21.0 0.00 0.00 0.00 84 1011.0
20260506060504 63 199 4.0 13.0 0.00 0.00 0.00 84 1011.1
20260506051004 65 222 5.0 14.0 0.00 0.00 0.00 82 1011.5
20260506044504 65 186 13.0 23.0 0.00 0.00 0.00 82 1011.7
20260506044004 65 228 6.0 15.0 0.00 0.00 0.00 82 1011.7
20260506043004 65 195 6.0 20.0 0.00 0.00 0.00 82 1011.7
20260506042504 65 182 6.0 18.0 0.00 0.00 0.00 81 1011.7
20260506042004 65 223 6.0 16.0 0.00 0.00 0.00 81 1011.7
20260506041504 65 202 10.0 21.0 0.00 0.00 0.00 81 1011.6
20260506041005 65 210 6.0 14.0 0.00 0.00 0.00 81 1011.6
20260506040504 65 210 6.0 13.0 0.00 0.00 0.00 81 1011.7
20260506035504 65 208 5.0 17.0 0.00 0.00 0.00 81 1011.6
20260506035005 65 210 6.0 14.0 0.00 0.00 0.00 80 1011.6
20260506034004 65 176 6.0 18.0 0.00 0.00 0.00 80 1011.6
20260506033505 65 168 9.0 13.0 0.00 0.00 0.00 80 1011.6
20260506033006 65 206 2.0 14.0 0.00 0.00 0.00 80 1011.6
20260506032503 65 183 8.0 14.0 0.00 0.00 0.00 80 1011.7
20260506032005 65 208 4.0 10.0 0.00 0.00 0.00 80 1011.6
20260506031504 65 190 5.0 12.0 0.00 0.00 0.00 79 1011.7
20260506031004 65 200 5.0 14.0 0.00 0.00 0.00 80 1011.7
20260506030504 65 196 6.0 13.0 0.00 0.00 0.00 79 1011.7
20260506030005 65 190 6.0 14.0 0.00 0.00 0.00 79 1011.7
20260506025504 65 203 6.0 13.0 0.00 0.00 0.00 79 1011.8
20260506025004 65 176 10.0 16.0 0.00 0.00 0.00 79 1011.7
20260506024504 65 214 8.0 12.0 0.00 0.00 0.00 79 1011.8
20260506024004 65 203 6.0 15.0 0.00 0.00 0.00 79 1011.7
20260506023504 65 187 7.0 13.0 0.00 0.00 0.00 79 1011.8
20260506023004 65 202 5.0 12.0 0.00 0.00 0.00 79 1011.8
20260506022504 65 221 8.0 15.0 0.00 0.00 0.00 79 1011.8
20260506021006 65 202 7.0 13.0 0.00 0.00 0.00 78 1011.7
20260506020504 65 218 7.0 16.0 0.00 0.00 0.00 77 1011.7
20260506020004 66 234 8.0 13.0 0.00 0.00 0.00 77 1011.7
20260506015005 66 207 6.0 10.0 0.00 0.00 0.00 76 1011.6
20260506014504 66 200 7.0 12.0 0.00 0.00 0.00 75 1011.6
20260506012504 67 220 4.0 10.0 0.00 0.00 0.00 73 1011.3
20260506012004 67 227 1.0 12.0 0.00 0.00 0.00 72 1011.2
20260506011504 67 195 6.0 15.0 0.00 0.00 0.00 72 1011.1
20260506011004 67 190 6.0 15.0 0.00 0.00 0.00 71 1011.0
20260506010504 67 222 5.0 14.0 0.00 0.00 0.00 71 1011.0
20260506010003 68 204 5.0 13.0 0.00 0.00 0.00 70 1011.0
20260506005504 68 190 7.0 16.0 0.00 0.00 0.00 70 1011.0
20260506004004 68 194 7.0 18.0 0.00 0.00 0.00 69 1010.8
20260506003504 68 205 10.0 16.0 0.00 0.00 0.00 69 1010.7
20260506003005 68 202 8.0 21.0 0.00 0.00 0.00 69 1010.6
20260506002504 68 189 8.0 20.0 0.00 0.00 0.00 69 1010.5
20260506002004 69 216 6.0 12.0 0.00 0.00 0.00 68 1010.6
20260506001532 69 191 7.0 14.0 0.00 0.00 0.00 68 1010.5
20260506001004 69 211 7.0 15.0 0.00 0.00 0.00 68 1010.5
20260506000506 69 198 6.0 13.0 0.00 0.00 0.00 68 1010.6
20260506000005 69 203 5.0 17.0 0.00 0.00 0.00 68 1010.6
20260505235505 69 206 7.0 16.0 0.00 0.00 0.00 67 1010.6
20260505234505 69 200 5.0 18.0 0.00 0.00 0.00 66 1010.5
20260505233505 70 195 5.0 12.0 0.00 0.00 0.00 66 1010.5
20260505233006 70 193 6.0 14.0 0.00 0.00 0.00 65 1010.5
20260505232505 70 212 3.0 15.0 0.00 0.00 0.00 65 1010.3
20260505232006 71 236 7.0 13.0 0.00 0.00 0.00 65 1010.6
20260505231506 71 240 7.0 13.0 0.00 0.00 0.00 64 1010.5
20260505231005 72 205 8.0 20.0 0.00 0.00 0.00 63 1010.5
20260505230005 73 175 5.0 10.0 0.00 0.00 0.00 61 1010.4
20260505225505 74 211 6.0 16.0 0.00 0.00 0.00 60 1010.3
20260505225005 74 212 10.0 16.0 0.00 0.00 0.00 60 1010.5
20260505224505 74 213 7.0 20.0 0.00 0.00 0.00 59 1010.3
20260505224005 74 189 9.0 13.0 0.00 0.00 0.00 59 1010.3
20260505223506 75 211 2.0 21.0 0.00 0.00 0.00 58 1010.5
20260505223005 75 211 9.0 16.0 0.00 0.00 0.00 58 1010.4
20260505222505 75 217 6.0 14.0 0.00 0.00 0.00 57 1010.4
20260505222005 76 209 4.0 16.0 0.00 0.00 0.00 55 1010.4
20260505221505 76 217 6.0 20.0 0.00 0.00 0.00 54 1010.3
20260505221005 77 201 8.0 16.0 0.00 0.00 0.00 53 1010.2
20260505220506 78 212 7.0 15.0 0.00 0.00 0.00 52 1010.1
20260505220005 78 214 7.0 12.0 0.00 0.00 0.00 51 1010.2
20260505215505 79 176 6.0 12.0 0.00 0.00 0.00 51 1010.2
20260505215005 79 225 8.0 14.0 0.00 0.00 0.00 50 1010.2
20260505214506 79 208 5.0 14.0 0.00 0.00 0.00 49 1010.0
20260505214005 80 223 7.0 15.0 0.00 0.00 0.00 48 1009.9
20260505213505 80 217 9.0 20.0 0.00 0.00 0.00 47 1009.9
20260505213005 80 210 10.0 21.0 0.00 0.00 0.00 47 1009.8
20260505212505 81 201 9.0 20.0 0.00 0.00 0.00 46 1009.8
20260505212005 81 206 6.0 14.0 0.00 0.00 0.00 47 1009.8
20260505211506 81 215 9.0 15.0 0.00 0.00 0.00 46 1009.7
20260505211005 81 187 9.0 20.0 0.00 0.00 0.00 45 1009.6
20260505210505 82 204 6.0 16.0 0.00 0.00 0.00 45 1009.6
20260505210005 82 214 6.0 15.0 0.00 0.00 0.00 45 1009.6
20260505205005 82 210 13.0 20.0 0.00 0.00 0.00 44 1009.5
20260505204505 82 215 17.0 25.0 0.00 0.00 0.00 43 1009.5
20260505204006 82 192 17.0 24.0 0.00 0.00 0.00 42 1009.6
20260505203005 83 199 12.0 22.0 0.00 0.00 0.00 42 1009.5
20260505202005 83 209 9.0 30.0 0.00 0.00 0.00 42 1009.5
20260505201505 83 226 13.0 25.0 0.00 0.00 0.00 41 1009.6
20260505201005 83 188 7.0 25.0 0.00 0.00 0.00 41 1009.6
20260505200505 83 223 7.0 23.0 0.00 0.00 0.00 41 1009.6
20260505200005 83 213 17.0 28.0 0.00 0.00 0.00 41 1009.8
20260505195505 84 201 14.0 22.0 0.00 0.00 0.00 41 1009.7
20260505195005 84 207 16.0 26.0 0.00 0.00 0.00 41 1009.6
20260505194505 84 223 14.0 25.0 0.00 0.00 0.00 41 1009.7
20260505194005 84 235 7.0 25.0 0.00 0.00 0.00 42 1009.7
20260505193506 85 205 14.0 28.0 0.00 0.00 0.00 41 1009.7
20260505193005 85 209 12.0 18.0 0.00 0.00 0.00 42 1009.8
20260505192506 86 245 9.0 23.0 0.00 0.00 0.00 42 1009.8
20260505192005 86 215 10.0 23.0 0.00 0.00 0.00 43 1010.0
20260505191505 87 208 9.0 20.0 0.00 0.00 0.00 42 1010.1
20260505191004 87 242 9.0 20.0 0.00 0.00 0.00 42 1010.1
20260505190505 88 208 12.0 26.0 0.00 0.00 0.00 41 1010.1
20260505190005 89 192 14.0 23.0 0.00 0.00 0.00 41 1010.1
20260505185504 89 219 8.0 13.0 0.00 0.00 0.00 41 1010.3
20260505185004 90 217 13.0 20.0 0.00 0.00 0.00 40 1010.4
20260505184505 90 187 8.0 17.0 0.00 0.00 0.00 40 1010.5
20260505184005 91 189 7.0 13.0 0.00 0.00 0.00 40 1010.5
20260505183505 91 226 12.0 22.0 0.00 0.00 0.00 39 1010.4
20260505183005 91 203 6.0 18.0 0.00 0.00 0.00 39 1010.5
20260505182505 92 197 10.0 21.0 0.00 0.00 0.00 40 1010.5
20260505182006 91 218 5.0 18.0 0.00 0.00 0.00 41 1010.5
20260505181505 91 216 7.0 18.0 0.00 0.00 0.00 40 1010.5
20260505181005 92 208 10.0 23.0 0.00 0.00 0.00 39 1010.7
20260505180506 92 200 9.0 13.0 0.00 0.00 0.00 40 1010.9
20260505180004 92 214 10.0 15.0 0.00 0.00 0.00 40 1010.8
20260505175505 92 235 8.0 18.0 0.00 0.00 0.00 40 1011.0
20260505175005 91 211 4.0 14.0 0.00 0.00 0.00 41 1011.1
20260505174504 91 183 6.0 20.0 0.00 0.00 0.00 40 1011.0
20260505174006 91 229 11.0 15.0 0.00 0.00 0.00 39 1011.0
20260505173505 91 218 7.0 16.0 0.00 0.00 0.00 40 1011.1
20260505173005 92 212 10.0 16.0 0.00 0.00 0.00 41 1011.1
20260505172505 92 196 7.0 16.0 0.00 0.00 0.00 41 1011.0
20260505172004 92 194 6.0 17.0 0.00 0.00 0.00 41 1011.0
20260505171505 92 197 6.0 15.0 0.00 0.00 0.00 40 1011.1
20260505171005 92 194 6.0 13.0 0.00 0.00 0.00 40 1011.2
20260505170005 92 219 12.0 15.0 0.00 0.00 0.00 39 1011.2
20260505165505 93 200 9.0 14.0 0.00 0.00 0.00 39 1011.3
20260505164005 92 225 5.0 13.0 0.00 0.00 0.00 41 1011.4
20260505163506 92 208 4.0 14.0 0.00 0.00 0.00 41 1011.4
20260505163004 90 229 5.0 14.0 0.00 0.00 0.00 42 1011.4
20260505162005 88 205 3.0 12.0 0.00 0.00 0.00 42 1011.5
20260505161505 88 214 5.0 14.0 0.00 0.00 0.00 42 1011.5
20260505161005 89 218 6.0 16.0 0.00 0.00 0.00 42 1011.6
20260505153005 88 191 5.0 14.0 0.00 0.00 0.00 43 1011.9
20260505152505 89 213 5.0 10.0 0.00 0.00 0.00 43 1012.0
20260505152005 89 210 3.0 12.0 0.00 0.00 0.00 44 1012.0
20260505151005 87 211 6.0 13.0 0.00 0.00 0.00 45 1012.0
20260505150505 86 225 2.0 14.0 0.00 0.00 0.00 47 1012.0
20260505140505 88 211 5.0 12.0 0.00 0.00 0.00 43 1012.2
20260505125004 81 202 1.0 6.0 0.00 0.00 0.00 53 1012.2
20260505124505 79 244 3.0 9.0 0.00 0.00 0.00 54 1012.2
20260505124005 79 231 5.0 14.0 0.00 0.00 0.00 53 1012.2
20260505122505 76 192 1.0 7.0 0.00 0.00 0.00 59 1012.1
20260505122005 74 200 3.0 10.0 0.00 0.00 0.00 58 1012.1
20260505121504 76 199 5.0 12.0 0.00 0.00 0.00 56 1012.2
20260505121005 79 215 3.0 9.0 0.00 0.00 0.00 55 1012.1
20260505120504 80 229 2.0 8.0 0.00 0.00 0.00 55 1012.2
20260505120005 79 192 1.0 6.0 0.00 0.00 0.00 57 1012.0
20260505115510 77 241 2.0 10.0 0.00 0.00 0.00 60 1012.1
20260505115004 75 216 3.0 10.0 0.00 0.00 0.00 62 1011.9
20260505113005 74 231 1.0 7.0 0.00 0.00 0.00 64 1011.6
20260505112505 73 191 2.0 8.0 0.00 0.00 0.00 68 1011.6
20260505112005 70 215 2.0 10.0 0.00 0.00 0.00 72 1011.6
20260505111504 67 186 5.0 7.0 0.00 0.00 0.00 77 1011.8
20260505111005 63 185 2.0 12.0 0.00 0.00 0.00 83 1011.7
20260505110504 60 209 6.0 8.0 0.00 0.00 0.00 85 1011.7
20260505102004 57 202 0.0 1.0 0.00 0.00 0.00 88 1011.2
20260505101505 57 202 0.0 7.0 0.00 0.00 0.00 88 1011.2
20260505101004 57 188 0.0 3.0 0.00 0.00 0.00 88 1011.1
20260505100505 57 202 0.0 0.0 0.00 0.00 0.00 88 1011.1
20260505100004 57 180 0.0 2.0 0.00 0.00 0.00 88 1011.2
20260505095504 57 182 0.0 3.0 0.00 0.00 0.00 88 1011.1
20260505095006 58 202 0.0 3.0 0.00 0.00 0.00 88 1011.2
20260505094505 58 187 0.0 3.0 0.00 0.00 0.00 88 1011.2
20260505094005 58 202 1.0 3.0 0.00 0.00 0.00 87 1011.3
20260505093505 58 187 2.0 6.0 0.00 0.00 0.00 87 1011.2
20260505092505 58 203 0.0 3.0 0.00 0.00 0.00 87 1011.1
20260505092004 58 202 1.0 6.0 0.00 0.00 0.00 88 1011.1
20260505091505 58 209 0.0 5.0 0.00 0.00 0.00 88 1011.2
20260505091005 58 202 0.0 0.0 0.00 0.00 0.00 87 1011.1
20260505090504 58 183 0.0 2.0 0.00 0.00 0.00 88 1011.2
20260505090005 58 217 0.0 3.0 0.00 0.00 0.00 88 1011.2
20260505085504 58 180 0.0 1.0 0.00 0.00 0.00 87 1011.0
20260505085004 58 202 1.0 5.0 0.00 0.00 0.00 87 1011.2
20260505084504 58 222 0.0 6.0 0.00 0.00 0.00 87 1011.3
20260505084004 58 210 1.0 6.0 0.00 0.00 0.00 87 1011.3
20260505083504 58 220 0.0 6.0 0.00 0.00 0.00 87 1011.4
20260505083005 58 202 1.0 6.0 0.00 0.00 0.00 87 1011.2
20260505082505 58 184 0.0 6.0 0.00 0.00 0.00 86 1011.2
20260505082005 58 194 2.0 7.0 0.00 0.00 0.00 86 1011.2
20260505081505 59 184 1.0 7.0 0.00 0.00 0.00 85 1011.0
20260505081004 59 215 0.0 3.0 0.00 0.00 0.00 85 1011.1
20260505080504 59 181 1.0 8.0 0.00 0.00 0.00 85 1011.0